Bad Axe, MI

8:18 PM EDT on April 25, 2018 (GMT -0400)
Huron County Memorial

Weather History for KBAX - May, 2014

Change the Weather History Date:

Saturday, May 10, 2014

  Actual Average (KP58) Record (KP58)
Temperature  
Mean Temperature 54 °F -  
Max Temperature 66 °F 57 °F 80 °F (2005)
Min Temperature 42 °F 43 °F 39 °F (2013)
Degree Days  
Heating Degree Days 10    
Growing Degree Days 4 (Base 50)    
Moisture  
Dew Point 39 °F    
Average Humidity 56    
Maximum Humidity 83    
Minimum Humidity 27    
Precipitation  
Precipitation 0.00 in - - ()
Sea Level Pressure  
Sea Level Pressure 29.86 in    
Wind  
Wind Speed 12 mph (West)    
Max Wind Speed 22 mph    
Max Gust Speed 30 mph    
Visibility 10 miles    
Events      
Averages and records for this station are not official NWS values.
T = Trace of Precipitation, MM = Missing Value Source: NWS Daily Summary

Daily Weather History Graph

Daily Weather History Graph

Search for Another Location

Airport or City:

Astronomy

May. 10, 2014 Rise Set
Actual Time 6:12 AM EDT 8:45 PM EDT
Civil Twilight 5:39 AM EDT 9:17 PM EDT
Nautical Twilight 4:58 AM EDT 9:58 PM EDT
Astronomical Twilight 4:12 AM EDT 10:45 PM EDT
Moon 4:31 PM EDT (5/10) 3:53 AM EDT (5/10)
Length of Visible Light 15h 38m
Length of Day
14h 32m
Waxing Gibbous, 82% of the Moon is Illuminated
May 10
Waxing Gibbous
May 14
Full
May 21
Last Quarter
May 28
New
Jun 5
First Quarter

Hourly Weather History & Observations

Time (EDT) Temp. Dew Point Humidity Pressure Visibility Wind Dir Wind Speed Gust Speed Precip Events Conditions
12:18 AM 62.2 °F 49.1 °F 62% 29.75 in 10.0 mi WSW 12.7 mph 19.6 mph N/A   Clear
12:38 AM 60.6 °F 49.3 °F 66% 29.75 in 10.0 mi WSW 10.4 mph 18.4 mph N/A   Clear
12:58 AM 58.3 °F 49.3 °F 72% 29.76 in 10.0 mi West 8.1 mph - N/A   Clear
1:18 AM 57.7 °F 48.7 °F 72% 29.76 in 10.0 mi WSW 8.1 mph - N/A   Clear
1:38 AM 56.8 °F 48.2 °F 73% 29.77 in 10.0 mi West 9.2 mph - N/A   Clear
1:58 AM 55.9 °F 47.7 °F 74% 29.77 in 10.0 mi West 8.1 mph - N/A   Clear
2:19 AM 55.4 °F 47.3 °F 74% 29.77 in 10.0 mi West 10.4 mph 16.1 mph N/A   Clear
2:38 AM 54.7 °F 46.6 °F 74% 29.78 in 10.0 mi West 11.5 mph - N/A   Clear
2:58 AM 54.9 °F 45.1 °F 70% 29.78 in 10.0 mi West 12.7 mph - N/A   Clear
3:19 AM 53.8 °F 46.0 °F 75% 29.78 in 10.0 mi WSW 9.2 mph 17.3 mph N/A   Clear
3:38 AM 53.1 °F 45.9 °F 77% 29.79 in 10.0 mi WSW 8.1 mph - N/A   Clear
3:58 AM 53.2 °F 45.1 °F 74% 29.80 in 10.0 mi WSW 10.4 mph - N/A   Clear
4:19 AM 52.7 °F 44.8 °F 74% 29.80 in 10.0 mi WSW 9.2 mph - N/A   Clear
4:38 AM 52.5 °F 44.4 °F 74% 29.80 in 10.0 mi WSW 10.4 mph - N/A   Clear
4:58 AM 52.0 °F 44.2 °F 75% 29.80 in 10.0 mi WSW 12.7 mph - N/A   Clear
5:19 AM 52.2 °F 43.9 °F 73% 29.81 in 10.0 mi WSW 12.7 mph - N/A   Clear
5:38 AM 51.3 °F 44.1 °F 76% 29.81 in 10.0 mi WSW 12.7 mph 17.3 mph N/A   Clear
5:58 AM 51.1 °F 43.7 °F 76% 29.81 in 10.0 mi WSW 12.7 mph 16.1 mph N/A   Clear
6:18 AM 50.7 °F 43.5 °F 76% 29.82 in 10.0 mi WSW 12.7 mph 20.7 mph N/A   Clear
6:38 AM 50.2 °F 43.3 °F 77% 29.82 in 10.0 mi West 13.8 mph - N/A   Clear
6:58 AM 50.5 °F 43.2 °F 76% 29.84 in 10.0 mi WSW 12.7 mph 18.4 mph N/A   Clear
7:18 AM 50.9 °F 43.2 °F 75% 29.85 in 10.0 mi WSW 11.5 mph - N/A   Clear
7:38 AM 51.4 °F 43.0 °F 73% 29.85 in 10.0 mi West 9.2 mph 17.3 mph N/A   Clear
7:58 AM 52.2 °F 43.0 °F 71% 29.85 in 10.0 mi West 11.5 mph 21.9 mph N/A   Clear
8:18 AM 52.9 °F 42.8 °F 69% 29.86 in 10.0 mi West 16.1 mph 24.2 mph N/A   Clear
8:38 AM 53.8 °F 41.4 °F 63% 29.86 in 10.0 mi West 13.8 mph 24.2 mph N/A   Clear
8:59 AM 54.5 °F 41.2 °F 61% 29.87 in 10.0 mi West 15.0 mph 21.9 mph N/A   Clear
9:18 AM 54.7 °F 39.9 °F 58% 29.87 in 10.0 mi West 18.4 mph 24.2 mph N/A   Clear
9:38 AM 55.6 °F 39.4 °F 55% 29.88 in 10.0 mi West 20.7 mph 25.3 mph N/A   Clear
9:58 AM 56.3 °F 39.4 °F 53% 29.88 in 10.0 mi West 19.6 mph 26.5 mph N/A   Clear
10:18 AM 56.8 °F 38.8 °F 51% 29.88 in 10.0 mi West 18.4 mph 25.3 mph N/A   Clear
10:39 AM 57.2 °F 38.3 °F 49% 29.88 in 10.0 mi WSW 19.6 mph 28.8 mph N/A   Clear
10:58 AM 57.6 °F 37.0 °F 46% 29.89 in 10.0 mi West 20.7 mph 25.3 mph N/A   Clear
11:18 AM 58.3 °F 37.4 °F 46% 29.89 in 10.0 mi West 20.7 mph 29.9 mph N/A   Scattered Clouds
11:39 AM 59.4 °F 37.8 °F 45% 29.89 in 10.0 mi West 17.3 mph 26.5 mph N/A   Scattered Clouds
11:58 AM 59.7 °F 36.5 °F 42% 29.89 in 10.0 mi West 19.6 mph 25.3 mph N/A   Clear
12:18 PM 60.8 °F 37.6 °F 42% 29.88 in 10.0 mi West 17.3 mph 25.3 mph N/A   Clear
12:39 PM 61.0 °F 35.1 °F 38% 29.88 in 10.0 mi West 16.1 mph 26.5 mph N/A   Clear
12:58 PM 62.1 °F 36.0 °F 38% 29.88 in 10.0 mi West 18.4 mph 27.6 mph N/A   Clear
1:18 PM 62.4 °F 35.1 °F 36% 29.88 in 10.0 mi West 17.3 mph 25.3 mph N/A   Clear
1:39 PM 63.5 °F 33.4 °F 33% 29.88 in 10.0 mi WSW 21.9 mph 27.6 mph N/A   Clear
1:58 PM 63.5 °F 33.4 °F 33% 29.88 in 10.0 mi West 19.6 mph 28.8 mph N/A   Clear
2:18 PM 64.2 °F 33.6 °F 32% 29.87 in 10.0 mi WSW 16.1 mph 27.6 mph N/A   Clear
2:39 PM 64.9 °F 33.6 °F 31% 29.87 in 10.0 mi WSW 13.8 mph 24.2 mph N/A   Clear
2:58 PM 65.3 °F 34.3 °F 32% 29.87 in 10.0 mi West 18.4 mph 24.2 mph N/A   Clear
3:19 PM 65.7 °F 33.6 °F 30% 29.87 in 10.0 mi West 13.8 mph 26.5 mph N/A   Clear
3:39 PM 65.8 °F 35.8 °F 33% 29.87 in 10.0 mi West 13.8 mph 21.9 mph N/A   Clear
3:58 PM 66.2 °F 35.6 °F 32% 29.87 in 10.0 mi West 16.1 mph 24.2 mph N/A   Clear
4:18 PM 66.4 °F 34.3 °F 31% 29.87 in 10.0 mi West 13.8 mph 25.3 mph N/A   Clear
4:38 PM 66.2 °F 33.4 °F 30% 29.87 in 10.0 mi West 16.1 mph 23.0 mph N/A   Clear
4:58 PM 66.6 °F 31.8 °F 27% 29.87 in 10.0 mi West 16.1 mph 24.2 mph N/A   Clear
5:19 PM 66.7 °F 32.5 °F 28% 29.88 in 10.0 mi West 15.0 mph 20.7 mph N/A   Clear
5:38 PM 66.6 °F 32.0 °F 28% 29.88 in 10.0 mi West 13.8 mph 26.5 mph N/A   Clear
5:58 PM 66.6 °F 32.0 °F 28% 29.88 in 10.0 mi WNW 10.4 mph 18.4 mph N/A   Clear
6:19 PM 66.4 °F 32.2 °F 28% 29.88 in 10.0 mi WSW 15.0 mph 18.4 mph N/A   Clear
6:38 PM 66.4 °F 32.4 °F 28% 29.89 in 10.0 mi West 10.4 mph 17.3 mph N/A   Clear
6:58 PM 65.8 °F 31.6 °F 28% 29.89 in 10.0 mi West 11.5 mph 18.4 mph N/A   Clear
7:19 PM 65.5 °F 32.0 °F 29% 29.89 in 10.0 mi West 10.4 mph 16.1 mph N/A   Clear
7:38 PM 65.1 °F 31.8 °F 29% 29.90 in 10.0 mi West 9.2 mph - N/A   Clear
7:59 PM 63.3 °F 33.3 °F 33% 29.90 in 10.0 mi NW 6.9 mph - N/A   Clear
8:18 PM 61.7 °F 34.5 °F 36% 29.91 in 10.0 mi NW 5.8 mph - N/A   Clear
8:38 PM 55.8 °F 40.5 °F 56% 29.92 in 10.0 mi NE 5.8 mph - N/A   Clear
8:59 PM 50.9 °F 41.0 °F 69% 29.92 in 10.0 mi NE 3.5 mph - N/A   Clear
9:18 PM 49.6 °F 40.1 °F 70% 29.93 in 10.0 mi ENE 4.6 mph - N/A   Clear
9:39 PM 47.3 °F 39.2 °F 73% 29.94 in 10.0 mi ENE 4.6 mph - N/A   Clear
9:59 PM 46.6 °F 38.8 °F 74% 29.95 in 10.0 mi Calm Calm - N/A   Clear
10:18 PM 46.0 °F 38.7 °F 75% 29.96 in 10.0 mi Calm Calm - N/A   Clear
10:39 PM 46.2 °F 38.5 °F 74% 29.96 in 10.0 mi Calm Calm - N/A   Clear
10:59 PM 44.4 °F 38.3 °F 79% 29.97 in 10.0 mi Calm Calm - N/A   Clear
11:18 PM 43.9 °F 38.1 °F 80% 29.97 in 10.0 mi Calm Calm - N/A   Clear
11:38 PM 43.3 °F 37.8 °F 81% 29.98 in 10.0 mi Calm Calm - N/A   Clear
11:58 PM 42.8 °F 37.9 °F 83% 29.97 in 10.0 mi Calm Calm - N/A   Clear